[[{"header":{"parameterUnit":"m.s-1","parameterCategory":1,"la1":30.2991,"la2":30.254,"lo1":-89.0895,"lo2":-89.0444,"dy":0.0017,"dx":0.0017,"nx":28,"ny":28,"refTime":"2025-05-28T09:00:00:Z","depth":0,"parameterNumber":2,"parameterNumberName":"U-component_of_WINDS"},"data":[0,0,0,0,0,0,0,0,0,0,0,0,0,0,0,0,0,0,0,0,0,0,0,0,0,0,0,0,0,0,0,0,0,0,0,0,0,0,0,0,0,0,0,0,0,0,0,0,0,0,0,0,0,0,0,0,0,0,3.3621,3.3622,0,3.3699,3.3699,3.37,3.3626,3.3623,3.362,3.3617,3.3697,3.3701,3.3706,0,0,0,0,0,0,0,0,0,0,0,0,0,3.3407,3.3412,3.3621,3.3622,3.3623,3.3698,3.3699,3.3701,3.3627,3.3623,3.3619,3.3616,3.3695,3.3701,3.3707,0,0,0,0,0,0,0,0,0,0,0,0,0,3.3494,3.3413,3.3621,3.3595,3.3593,3.3698,3.37,3.3701,3.3627,3.3623,3.3618,3.3614,3.3693,3.37,3.3707,3.3841,0,0,3.373,3.3733,0,0,0,0,0,0,0,0,3.3489,3.3502,3.3598,3.3597,3.3595,3.3648,3.3653,3.3748,3.3628,3.3615,3.3617,3.3612,3.3684,3.3692,3.3716,3.3845,3.3848,3.373,3.3735,3.3738,3.374,0,0,0,0,0,0,0,3.3483,3.3498,3.3652,3.3599,3.3598,3.3579,3.3587,3.3671,3.3673,3.3615,3.361,3.362,3.3682,3.3709,3.3717,3.385,3.373,3.3737,3.3741,3.3744,3.409,3.4095,0,0,0,0,0,0,3.348,3.3494,3.3649,3.3654,3.353,3.3587,3.3595,3.3636,3.3672,3.3673,3.3624,3.3617,3.3699,3.3709,3.372,3.3877,3.3738,3.3745,3.3749,3.4086,3.4091,3.4097,0,0,0,0,0,0,3.3476,3.3495,3.3646,3.3573,3.359,3.3595,3.3641,3.364,3.3666,3.3679,3.3679,3.3651,3.3696,3.371,3.3811,3.3879,3.3748,3.3755,3.408,3.4087,3.4094,3.4195,0,0,0,0,0,0,3.347,3.3494,3.3545,3.3574,3.3595,3.3737,3.3646,3.3644,3.3679,3.367,3.3704,3.3705,3.3693,3.3801,3.3819,3.3887,3.376,3.4074,3.4083,3.4092,3.4185,3.4205,3.4221,0,0,0,0,0,3.3463,3.3571,3.3548,3.3567,3.3659,3.3741,3.3752,3.3736,3.3685,3.3736,3.3744,3.3704,3.3869,3.3812,3.3831,3.3903,3.4069,3.4081,3.4091,3.4177,3.4201,3.4221,0,0,0,0,0,0,3.3549,3.3574,3.3549,3.3669,3.3704,3.3728,3.3792,3.3762,3.3811,3.3801,3.3779,3.3787,3.3895,3.3909,3.3845,3.4033,3.3961,3.3976,3.402,3.4042,3.406,3.4053,3.3766,0,0,0,0,0,3.3582,3.3647,3.3665,3.377,3.3788,3.3787,3.3823,3.3807,3.3842,3.3856,3.3871,3.3906,3.3965,3.4005,3.406,3.4188,3.4193,3.4246,3.4264,3.4279,3.4292,3.4358,3.4382,3.4132,3.4132,3.4132,0,0,3.3651,3.3672,3.3715,3.3787,3.3812,3.3879,3.38,3.3874,3.3924,3.3867,3.3963,3.3976,3.4013,3.4128,3.4179,3.4143,3.4362,3.4293,3.4304,3.4309,3.4372,3.4395,3.4416,3.414,3.4138,3.4137,0,0,3.381,3.3834,3.3922,3.3949,3.3987,3.3986,3.4007,3.4037,3.4043,3.4139,3.4098,3.4156,3.4259,3.4287,3.4314,3.4484,3.4449,3.4503,3.4595,3.4661,3.468,3.4697,3.4756,3.4778,3.4516,3.4516,3.4517,0,3.389,3.399,3.3972,3.4049,3.4082,3.4034,3.4123,3.415,3.4204,3.4227,3.4187,3.4314,3.4336,3.4456,3.4497,3.4522,3.4544,3.4498,3.4679,3.4696,3.4712,3.4768,3.479,3.4523,3.4522,3.4521,3.4521,0,3.4086,3.4156,3.4223,3.4277,3.4317,3.44,3.4394,3.4437,3.4419,3.4422,3.452,3.4545,3.4604,3.4631,3.4614,3.4748,3.4725,3.4682,3.4608,3.4742,3.4794,3.4815,3.4531,3.4529,3.4527,3.4526,0,0,3.43,3.4343,3.4368,3.4391,3.443,3.4483,3.4564,3.4622,3.4658,3.4698,3.4764,3.4852,3.4813,3.4844,3.483,3.4888,3.5018,3.4837,3.4838,3.4868,3.5165,3.5196,3.5221,3.4996,3.5,3.5003,3.5161,0,3.4459,3.4599,3.4585,3.4718,3.4782,3.4737,3.4807,3.4838,3.4844,3.4898,3.4903,3.4965,3.4909,3.4928,3.4983,3.4991,3.5077,3.4979,3.5055,3.5058,3.5046,3.5248,3.5281,3.5429,3.5182,3.5185,3.5188,0,3.4663,3.4709,3.4849,3.4877,3.4903,3.4966,3.5017,3.507,3.5104,3.5104,3.5139,3.5115,3.5195,3.5121,3.523,3.5164,3.5194,3.5203,3.5208,3.5213,3.513,3.5257,3.5477,3.5498,3.522,3.5217,3.5215,0,3.4803,3.4901,3.4996,3.5018,3.5054,3.5099,3.5116,3.5146,3.5181,3.5226,3.5248,3.5302,3.5331,3.5373,3.5363,3.5311,3.5474,3.54,3.5475,3.5475,3.551,3.5508,3.5736,3.5533,3.5533,3.5533,3.5532,0,3.4981,3.5067,3.5059,3.5118,3.5213,3.5197,3.5291,3.5302,3.5329,3.5389,3.5354,3.541,3.5395,3.5451,3.5444,3.5534,3.5548,3.5549,3.5546,3.5551,3.5551,3.5569,3.5558,3.5538,3.5537,3.5536,3.5535,0,3.5153,3.5151,3.5252,3.5278,3.5287,3.5355,3.5377,3.5432,3.5434,3.551,3.5526,3.553,3.5594,3.5589,3.566,3.5655,3.5767,3.5752,3.5755,3.5751,3.5826,3.5818,3.6072,3.6104,3.5883,3.5885,3.5887,0,3.5265,3.5331,3.5364,3.5401,3.5421,3.5482,3.5518,3.5504,3.5543,3.5586,3.5635,3.5696,3.5743,3.5846,3.5855,3.5909,3.5894,3.598,3.5902,3.5905,3.5893,3.5889,3.5894,3.5994,3.5997,3.5999,3.6001,0,3.5465,3.5461,3.5514,3.5567,3.5611,3.5652,3.5689,3.5722,3.5711,3.5756,3.5821,3.5858,3.593,3.599,3.6042,3.6058,3.6027,3.6025,3.6045,3.605,3.6048,3.6048,3.5795,3.6019,3.6017,3.6016,3.6015,3.6014,3.5609,3.5664,3.5696,3.5756,3.5783,3.5819,3.5871,3.588,3.5934,3.5992,3.5981,3.6053,3.6084,3.615,3.6172,3.6227,3.6196,3.6226,3.6233,3.624,3.6247,3.6041,3.6237,3.6236,3.6236,3.6235,3.6235,0,3.5805,3.5823,3.5879,3.5932,3.5979,3.5947,3.5987,3.6028,3.6092,3.6124,3.6172,3.6245,3.6303,3.6316,3.6371,3.6413,3.64,3.6427,3.6423,3.6427,3.6273,3.6249,3.6437,3.6437,3.6437,3.6437,3.6437,3.6437,3.5912,3.6004,3.6004,3.6108,3.6125,3.6196,3.6221,3.6253,3.6279,3.6363,3.641,3.6419,3.6443,3.65,3.6551,3.6553,3.6574,3.6607,3.6603,3.6458,3.6438,3.6419,3.6396,3.6612,3.6612,3.6752,3.6754,3.6755]},{"header":{"parameterUnit":"m.s-1","parameterCategory":1,"la1":30.2991,"la2":30.254,"lo1":-89.0895,"lo2":-89.0444,"dy":0.0017,"dx":0.0017,"nx":28,"ny":28,"refTime":"2025-05-28T09:00:00:Z","depth":0,"parameterNumber":3,"parameterNumberName":"V-component_of_WINDS"},"data":[0,0,0,0,0,0,0,0,0,0,0,0,0,0,0,0,0,0,0,0,0,0,0,0,0,0,0,0,0,0,0,0,0,0,0,0,0,0,0,0,0,0,0,0,0,0,0,0,0,0,0,0,0,0,0,0,0,0,3.3231,3.3235,0,3.3617,3.3622,3.3626,3.3772,3.377,3.3769,3.3768,3.4156,3.4167,3.4178,0,0,0,0,0,0,0,0,0,0,0,0,0,3.2609,3.262,3.3231,3.3236,3.3241,3.3617,3.3622,3.3627,3.3772,3.377,3.3769,3.3768,3.4152,3.4165,3.4179,0,0,0,0,0,0,0,0,0,0,0,0,0,3.2925,3.2623,3.323,3.3358,3.3374,3.3616,3.3622,3.3629,3.3772,3.377,3.3769,3.3767,3.4147,3.4164,3.4181,3.4321,0,0,3.4233,3.4241,0,0,0,0,0,0,0,0,3.2907,3.2948,3.3335,3.335,3.3367,3.3645,3.3545,3.3861,3.3773,3.3621,3.3768,3.3766,3.3987,3.4017,3.4093,3.434,3.4356,3.4235,3.4245,3.4252,3.4257,0,0,0,0,0,0,0,3.2885,3.2932,3.3384,3.334,3.336,3.3393,3.3436,3.3606,3.3808,3.3634,3.3645,3.3689,3.3995,3.4076,3.4103,3.4362,3.4234,3.4249,3.426,3.4267,3.4741,3.4743,0,0,0,0,0,0,3.2843,3.2913,3.3371,3.3395,3.3129,3.3406,3.3454,3.3557,3.3807,3.3844,3.369,3.3695,3.4048,3.4083,3.4117,3.4298,3.4252,3.4268,3.4278,3.4739,3.4741,3.4744,0,0,0,0,0,0,3.2829,3.2883,3.3356,3.3158,3.322,3.3419,3.3533,3.3566,3.3647,3.385,3.3886,3.3736,3.4048,3.4093,3.427,3.4313,3.4276,3.4292,3.4736,3.4739,3.4743,3.4659,0,0,0,0,0,0,3.2811,3.2877,3.2935,3.3158,3.323,3.3504,3.3536,3.3575,3.3677,3.3686,3.3903,3.3937,3.405,3.4243,3.4287,3.4336,3.4305,3.4733,3.4737,3.4742,3.4658,3.4659,3.4659,0,0,0,0,0,3.2788,3.2894,3.2937,3.2991,3.3307,3.3507,3.3548,3.3678,3.368,3.3738,3.3868,3.393,3.4301,3.426,3.431,3.4365,3.4731,3.4736,3.4741,3.4658,3.4659,3.4659,0,0,0,0,0,0,3.2669,3.2926,3.2976,3.3158,3.331,3.3531,3.3609,3.3675,3.3827,3.3829,3.3981,3.4029,3.4193,3.4297,3.4247,3.4513,3.452,3.4535,3.4439,3.4442,3.4442,3.4413,3.4319,0,0,0,0,0,3.2664,3.2807,3.3023,3.3162,3.3236,3.3409,3.3501,3.3588,3.375,3.3814,3.3957,3.4109,3.4261,3.4357,3.4507,3.4674,3.4722,3.4736,3.4736,3.4735,3.4747,3.4841,3.4849,3.4761,3.4761,3.4761,0,0,3.2654,3.2813,3.2894,3.3142,3.327,3.3412,3.3462,3.3611,3.3717,3.3836,3.4012,3.4122,3.4302,3.4474,3.4556,3.4565,3.4781,3.4742,3.474,3.4752,3.4847,3.4855,3.4862,3.4765,3.4764,3.4764,0,0,3.2711,3.2846,3.2977,3.3104,3.3297,3.3411,3.3441,3.3654,3.3732,3.3911,3.4003,3.413,3.4387,3.4511,3.4608,3.4708,3.477,3.4752,3.4754,3.4844,3.4851,3.4858,3.4893,3.4904,3.4763,3.4763,3.4763,0,3.2674,3.2896,3.3034,3.3179,3.3284,3.3401,3.3532,3.3648,3.3879,3.3948,3.3955,3.4279,3.4409,3.461,3.4635,3.4709,3.4747,3.4729,3.484,3.4848,3.4856,3.4891,3.4904,3.476,3.476,3.476,3.4761,0,3.284,3.2992,3.3073,3.3297,3.3411,3.3548,3.3704,3.3803,3.3879,3.3991,3.417,3.433,3.4513,3.4568,3.4643,3.4779,3.4779,3.481,3.482,3.4859,3.4894,3.4909,3.4755,3.4756,3.4757,3.4758,0,0,3.2834,3.3131,3.3159,3.3261,3.3482,3.36,3.374,3.3922,3.4003,3.4157,3.4278,3.4492,3.4522,3.4632,3.4721,3.48,3.4868,3.4823,3.4829,3.4825,3.5026,3.5001,3.5014,3.491,3.4913,3.4915,3.5011,0,3.2919,3.3179,3.3307,3.351,3.365,3.3761,3.3883,3.403,3.4137,3.4269,3.4387,3.4536,3.4566,3.4632,3.4715,3.4842,3.491,3.4837,3.502,3.5025,3.4972,3.5033,3.5008,3.509,3.5026,3.5028,3.503,0,3.3054,3.321,3.3427,3.3631,3.3694,3.3802,3.3978,3.4104,3.4271,3.4344,3.4465,3.4552,3.4701,3.4699,3.4904,3.4851,3.4934,3.5007,3.5013,3.5035,3.503,3.5056,3.512,3.5132,3.5053,3.5051,3.5049,0,3.3026,3.329,3.3455,3.3538,3.378,3.3852,3.3955,3.4122,3.4222,3.4375,3.4441,3.4607,3.4698,3.4824,3.4952,3.494,3.5144,3.5154,3.5207,3.5203,3.5245,3.5241,3.5322,3.5298,3.5297,3.5297,3.5297,0,3.3108,3.3236,3.3445,3.3546,3.3692,3.3836,3.3975,3.4087,3.4233,3.4355,3.446,3.4571,3.4734,3.4865,3.4966,3.512,3.516,3.5221,3.5246,3.5212,3.5204,3.5268,3.5265,3.5301,3.53,3.5299,3.5299,0,3.3102,3.3248,3.3434,3.3647,3.3703,3.3801,3.3983,3.4083,3.4195,3.4348,3.4391,3.4566,3.4726,3.4867,3.5077,3.5144,3.5301,3.5333,3.5246,3.5259,3.5304,3.5297,3.543,3.5454,3.5411,3.5412,3.5412,0,3.3145,3.3247,3.3471,3.3562,3.3664,3.3808,3.3912,3.4056,3.4159,3.4356,3.4431,3.4599,3.4741,3.499,3.5134,3.5294,3.533,3.5365,3.5354,3.5316,3.533,3.5322,3.5332,3.5364,3.5364,3.5364,3.5363,0,3.3205,3.3272,3.3419,3.359,3.3712,3.3853,3.3997,3.4064,3.4235,3.4344,3.451,3.462,3.4835,3.4999,3.5175,3.5278,3.5348,3.5365,3.5386,3.5352,3.5298,3.5327,3.5244,3.5362,3.5362,3.5362,3.5362,3.5362,3.3225,3.332,3.3493,3.3653,3.3776,3.3908,3.4013,3.4138,3.428,3.4468,3.4544,3.4711,3.4873,3.5118,3.522,3.5352,3.5364,3.5394,3.5402,3.5407,3.54,3.5276,3.5384,3.5384,3.5385,3.5385,3.5385,0,3.329,3.3407,3.3552,3.3752,3.3876,3.3933,3.4095,3.4195,3.4342,3.4489,3.4626,3.4815,3.4974,3.513,3.5296,3.5371,3.5407,3.541,3.5406,3.5428,3.538,3.5346,3.5378,3.5378,3.5378,3.5378,3.5378,3.5378,3.3339,3.3503,3.3589,3.3814,3.3929,3.4097,3.4184,3.4305,3.4423,3.463,3.4763,3.4865,3.5014,3.5192,3.5339,3.5381,3.5437,3.5431,3.548,3.5433,3.5432,3.5431,3.5399,3.5442,3.5442,3.5518,3.5518,3.5519]}]]